FW6870 Weather Reports


Display with metric or nautical units.
time (UTC)temp
F
wind
direction
speed
MPH
gust
MPH
rain 1hr
in
rain 24hr
in
rain mn
in
humidity
%
barometer
mb
20260510133029 67 56 2.0 4.0 0.00 0.00 0.00 77 1017.5
20260510131528 66 19 0.0 4.0 0.00 0.00 0.00 81 1017.4
20260510130028 65 30 1.0 3.0 0.00 0.00 0.00 83 1017.5
20260510124528 63 0 1.0 3.0 0.00 0.00 0.00 84 1017.2
20260510123032 62 274 2.0 4.0 0.00 0.00 0.00 85 1017.1
20260510121526 62 82 2.0 6.0 0.00 0.00 0.00 85 1016.7
20260510120032 61 292 3.0 4.0 0.00 0.00 0.00 85 1016.8
20260510114530 61 303 3.0 7.0 0.00 0.00 0.00 84 1016.6
20260510113028 61 13 4.0 5.0 0.00 0.00 0.00 83 1016.2
20260510111528 62 5 5.0 8.0 0.00 0.00 0.00 83 1016.2
20260510110035 61 5 4.0 5.0 0.00 0.00 0.00 84 1016.0
20260510104528 61 302 3.0 5.0 0.00 0.00 0.00 86 1015.7
20260510103037 61 26 3.0 4.0 0.00 0.00 0.00 86 1015.6
20260510101527 61 17 4.0 5.0 0.00 0.00 0.00 86 1015.4
20260510100032 61 14 4.0 8.0 0.00 0.00 0.00 85 1015.1
20260510094529 61 12 5.0 8.0 0.00 0.00 0.00 85 1015.1
20260510093028 61 19 5.0 9.0 0.00 0.00 0.00 86 1015.0
20260510091528 61 341 4.0 11.0 0.00 0.00 0.00 86 1014.9
20260510090032 61 19 6.0 11.0 0.00 0.00 0.00 87 1014.7
20260510084528 61 309 6.0 12.0 0.00 0.00 0.00 89 1014.4
20260510083036 60 330 6.0 12.0 0.00 0.00 0.00 90 1014.4
20260510081526 60 332 5.0 8.0 0.00 0.00 0.00 91 1014.2
20260510080025 60 312 4.0 8.0 0.00 0.00 0.00 91 1014.1
20260510074529 61 315 6.0 9.0 0.00 0.00 0.00 90 1014.1
20260510073032 61 293 5.0 9.0 0.00 0.00 0.00 90 1014.2
20260510071540 61 305 6.0 12.0 0.00 0.00 0.00 91 1014.0
20260510070029 61 306 5.0 10.0 0.00 0.00 0.00 91 1014.0
20260510064528 61 289 7.0 11.0 0.00 0.00 0.00 92 1014.0
20260510063029 61 280 7.0 10.0 0.00 0.00 0.00 92 1014.1
20260510061531 61 277 6.0 9.0 0.00 0.00 0.00 92 1014.2
20260510060034 61 282 5.0 10.0 0.00 0.00 0.00 92 1014.2
20260510054531 61 303 7.0 10.0 0.00 0.00 0.00 92 1014.2
20260510053029 61 293 7.0 11.0 0.00 0.00 0.00 93 1014.3
20260510051539 61 288 8.0 12.0 0.00 0.00 0.00 93 1014.6
20260510050030 61 273 7.0 11.0 0.00 0.00 0.00 92 1014.4
20260510044532 62 261 8.0 11.0 0.00 0.00 0.00 92 1014.4
20260510043028 62 265 8.0 12.0 0.00 0.00 0.00 92 1014.4
20260510041530 62 261 8.0 13.0 0.00 0.00 0.00 91 1014.2
20260510040030 62 259 8.0 12.0 0.00 0.00 0.00 91 1014.2
20260510034527 63 234 9.0 13.0 0.00 0.00 0.00 90 1014.3
20260510033030 63 271 8.0 13.0 0.00 0.00 0.00 90 1014.2
20260510031526 63 242 7.0 13.0 0.00 0.00 0.00 89 1014.3
20260510030027 63 271 7.0 12.0 0.00 0.00 0.00 89 1014.2
20260510024530 64 268 6.0 10.0 0.00 0.00 0.00 88 1014.0
20260510023026 64 80 7.0 12.0 0.00 0.00 0.00 87 1014.0
20260510021531 64 72 8.0 14.0 0.00 0.00 0.00 87 1013.9
20260510020026 64 234 9.0 14.0 0.00 0.00 0.00 86 1013.7
20260510014526 65 262 7.0 17.0 0.00 0.00 0.00 86 1013.7
20260510013028 65 229 9.0 15.0 0.00 0.00 0.00 86 1013.2
20260510011535 65 225 8.0 14.0 0.00 0.00 0.00 86 1013.0
20260510010035 65 218 9.0 14.0 0.00 0.00 0.00 85 1013.0
20260510004527 66 248 9.0 17.0 0.00 0.00 0.00 85 1012.9
20260510003027 66 277 10.0 15.0 0.00 0.00 0.00 84 1012.9
20260510001527 67 246 9.0 15.0 0.00 0.00 0.00 83 1012.8
20260510000030 67 215 5.0 12.0 0.00 0.00 0.00 83 1012.5
20260509234533 68 225 3.0 9.0 0.00 0.00 0.00 82 1012.2
20260509233029 68 231 7.0 13.0 0.00 0.00 0.00 81 1012.0
20260509231532 68 240 5.0 14.0 0.00 0.00 0.00 80 1011.8
20260509230030 69 238 7.0 15.0 0.00 0.00 0.00 79 1011.7
20260509224530 69 223 8.0 16.0 0.00 0.00 0.00 79 1011.7
20260509223028 69 227 10.0 18.0 0.00 0.00 0.00 78 1011.6
20260509221541 69 265 9.0 17.0 0.00 0.00 0.00 77 1011.7
20260509220030 70 277 8.0 16.0 0.00 0.00 0.00 76 1011.5
20260509214528 70 260 12.0 20.0 0.00 0.00 0.00 75 1011.5
20260509213029 71 252 9.0 16.0 0.00 0.00 0.00 75 1011.3
20260509211531 70 229 12.0 18.0 0.00 0.00 0.00 75 1011.4
20260509210028 70 238 11.0 21.0 0.00 0.00 0.00 75 1011.4
20260509204532 70 257 9.0 17.0 0.00 0.00 0.00 77 1011.5
20260509203030 70 278 6.0 13.0 0.00 0.00 0.00 75 1011.4
20260509201527 70 236 10.0 17.0 0.00 0.00 0.00 74 1011.6
20260509200026 70 198 10.0 17.0 0.00 0.00 0.00 74 1011.7
20260509194528 70 244 8.0 17.0 0.00 0.00 0.00 75 1011.9
20260509193030 70 201 7.0 16.0 0.00 0.00 0.00 75 1011.8
20260509191530 70 233 10.0 16.0 0.00 0.00 0.00 74 1011.9
20260509190042 69 252 10.0 16.0 0.00 0.00 0.00 76 1012.1
20260509184534 69 258 9.0 13.0 0.00 0.00 0.00 77 1012.1
20260509183038 68 296 8.0 17.0 0.00 0.00 0.00 78 1011.9
20260509181528 67 81 10.0 17.0 0.00 0.00 0.00 79 1012.1
20260509180028 67 78 8.0 17.0 0.00 0.00 0.00 79 1012.1
20260509174527 67 256 9.0 17.0 0.00 0.00 0.00 80 1012.3
20260509173031 66 242 8.0 14.0 0.00 0.00 0.00 83 1012.4
20260509171533 65 280 11.0 18.0 0.00 0.00 0.00 84 1012.7
20260509170037 64 252 11.0 17.0 0.00 0.00 0.00 85 1012.8
20260509164530 64 269 9.0 18.0 0.00 0.00 0.00 86 1013.2
20260509163029 64 292 8.0 12.0 0.00 0.00 0.00 86 1013.3
20260509161528 63 220 5.0 9.0 0.00 0.00 0.00 86 1013.2
20260509160028 63 219 3.0 10.0 0.00 0.00 0.00 86 1013.4
20260509154528 62 237 3.0 10.0 0.00 0.00 0.00 87 1013.6
20260509153032 62 259 3.0 8.0 0.00 0.00 0.00 87 1013.6
20260509151529 61 231 5.0 11.0 0.00 0.00 0.00 86 1013.8
20260509150031 61 267 4.0 8.0 0.00 0.00 0.00 86 1013.5
20260509144526 61 276 3.0 6.0 0.00 0.00 0.00 85 1013.4
20260509143026 61 269 4.0 8.0 0.00 0.00 0.00 85 1013.4
20260509141535 61 238 2.0 5.0 0.00 0.00 0.00 85 1013.2
20260509140035 61 240 3.0 8.0 0.00 0.00 0.00 86 1012.8
20260509134530 61 235 4.0 8.0 0.00 0.00 0.00 86 1013.0